Location: Unspecified
(35.6961°N, 0.0000°E)
Time: 01:47:09
(UTC+00:00)

Altair - Pass Details

Date: 25 May 2019
Orbit: 1501 x 1683 km, 47.2° (Epoch: 16 June)

Event Time Altitude Azimuth Distance (km) Brightness Sun altitude
Rises 02:22:50 0° 221° (SW) 4,852 - -23.7°
Reaches altitude 10° 02:25:57 10° 219° (SW) 3,887 - -23.3°
Exits shadow 02:30:51 34° 210° (SSW) 2,497 8.0 -22.7°
Maximum altitude 02:35:51 68° 139° (SE) 1,778 7.7 -22.1°
Drops below altitude 10° 02:45:55 10° 59° (ENE) 3,946 10.7 -20.7°
Sets 02:49:06 0° 57° (ENE) 4,929 11.6 -20.3°
